Hoolehua, HI

7:28 AM HST on September 29, 2016 (GMT -1000)
Molokai

Weather History for PHMK - March, 2013

Change the Weather History Date:

Sunday, March 31, 2013

  Actual Average Record
Temperature  
Mean Temperature 68 °F -  
Max Temperature 73 °F 78 °F 88 °F (2004)
Min Temperature 62 °F 65 °F 57 °F (2007)
Cooling Degree Days 2    
Growing Degree Days 18 (Base 50)    
Moisture  
Dew Point 53 °F    
Average Humidity 61    
Maximum Humidity 83    
Minimum Humidity 44    
Precipitation  
Precipitation 0.00 in - - ()
Sea Level Pressure  
Sea Level Pressure 30.05 in    
Wind  
Wind Speed 13 mph (NNW)    
Max Wind Speed 18 mph    
Max Gust Speed 23 mph    
Visibility 10 miles    
Events      
Averages and records for this station are not official NWS values.
T = Trace of Precipitation, MM = Missing Value Source: NWS Daily Summary

Daily Weather History Graph

Daily Weather History Graph

Search for Another Location

Airport or City:

Trip Planner

Search our weather history database for the weather conditions in past years. The results will help you decide how hot, cold, wet, or windy it might be!

Date:

Astronomy

Mar. 31, 2013 Rise Set
Actual Time 6:22 AM HST 6:42 PM HST
Civil Twilight 5:59 AM HST 7:05 PM HST
Nautical Twilight 5:33 AM HST 7:31 PM HST
Astronomical Twilight 5:07 AM HST 7:57 PM HST
Moon 11:31 PM HST (3/31) 9:52 AM HST (3/31)
Length of Visible Light 13h 05m
Length of Day
12h 20m
Waning Gibbous, 75% of the Moon is Illuminated
Mar 31
Waning Gibbous
Apr 2
Last Quarter
Apr 9
New
Apr 18
First Quarter
Apr 25
Full

Hourly Weather History & Observations

Time (HST) Temp. Dew Point Humidity Pressure Visibility Wind Dir Wind Speed Gust Speed Precip Events Conditions
12:21 AM 66.2 °F 60.8 °F 83% 30.04 in 10.0 mi NNW 13.8 mph 20.7 mph N/A   Overcast
12:46 AM 66.2 °F 57.2 °F 73% 30.04 in 10.0 mi NNW 12.7 mph - 0.00 in   Overcast
12:54 AM 66.9 °F 57.9 °F 73% 30.05 in 10.0 mi NNW 10.4 mph - 0.00 in   Overcast
1:54 AM 66.0 °F 57.0 °F 73% 30.04 in 10.0 mi NNW 11.5 mph 19.6 mph N/A   Scattered Clouds
2:54 AM 64.9 °F 54.0 °F 68% 30.04 in 10.0 mi NNW 13.8 mph - N/A   Scattered Clouds
3:54 AM 64.9 °F 53.1 °F 65% 30.03 in 10.0 mi NNW 15.0 mph - N/A   Partly Cloudy
4:54 AM 64.0 °F 50.0 °F 60% 30.05 in 10.0 mi NNW 12.7 mph - N/A   Clear
5:54 AM 64.0 °F 52.0 °F 65% 30.07 in 10.0 mi NNW 12.7 mph - N/A   Partly Cloudy
6:54 AM 63.0 °F 50.0 °F 63% 30.08 in 10.0 mi NNW 11.5 mph - N/A   Partly Cloudy
7:54 AM 66.9 °F 52.0 °F 59% 30.08 in 10.0 mi NNW 11.5 mph - N/A   Partly Cloudy
8:54 AM 69.1 °F 54.0 °F 58% 30.09 in 10.0 mi NNW 15.0 mph - N/A   Partly Cloudy
9:54 AM 70.0 °F 52.0 °F 53% 30.09 in 10.0 mi NNW 17.3 mph - N/A   Partly Cloudy
10:54 AM 71.1 °F 53.1 °F 53% 30.09 in 10.0 mi NNW 16.1 mph - N/A   Partly Cloudy
11:54 AM 71.1 °F 52.0 °F 51% 30.09 in 10.0 mi North 18.4 mph 23.0 mph N/A   Partly Cloudy
12:54 PM 72.0 °F 52.0 °F 49% 30.06 in 10.0 mi NW 16.1 mph - N/A   Partly Cloudy
1:54 PM 73.0 °F 50.0 °F 44% 30.04 in 10.0 mi NW 13.8 mph 21.9 mph N/A   Clear
2:54 PM 73.0 °F 53.1 °F 49% 30.02 in 10.0 mi NNW 11.5 mph 19.6 mph N/A   Clear
3:54 PM 72.0 °F 53.1 °F 51% 30.00 in 10.0 mi NNW 15.0 mph 21.9 mph N/A   Clear
4:54 PM 70.0 °F 54.0 °F 57% 30.01 in 10.0 mi NNW 13.8 mph - N/A   Mostly Cloudy
5:54 PM 68.0 °F 53.1 °F 59% 30.01 in 10.0 mi NNW 11.5 mph - N/A   Mostly Cloudy
6:54 PM 64.9 °F 54.0 °F 68% 30.03 in 10.0 mi NNW 8.1 mph - N/A   Mostly Cloudy
7:54 PM 64.9 °F 52.0 °F 63% 30.04 in 10.0 mi NW 9.2 mph - N/A   Overcast
8:54 PM 64.9 °F 51.1 °F 61% 30.05 in 10.0 mi NW 11.5 mph - N/A   Overcast
9:54 PM 64.0 °F 52.0 °F 65% 30.05 in 10.0 mi NNW 8.1 mph - N/A   Scattered Clouds
10:54 PM 62.1 °F 52.0 °F 70% 30.05 in 10.0 mi NNW 6.9 mph - N/A   Partly Cloudy
11:54 PM 62.1 °F 50.0 °F 65% 30.03 in 10.0 mi NNW 8.1 mph - N/A   Clear